This demonstration page uses our WeatherBlox Daily Observations layout. Learn more.

Left ArrowRight Arrow

Hourly Observations for February 4, 2018

Temp ( °F °C ) Dew Point ( °F °C ) Humidity (%) Winds ( mph kmh ) Pressure ( in mb ) Visibility ( mi km ) Precip ( " mm )
12:07 am 00:07 Cloudy 21 -6.1 14 -10 74 74 N 21 33 30.18 1022 10 16 0.00 0.00
12:44 am 00:44 Windy with Snow Likely 19 -7 16 -9 86 86 N 22 35 30.18 1022 3 4 0.00 0.00
12:53 am 00:53 Windy with Snow Likely 19 -7.2 15 -9.4 84 84 N 25 41 30.09 1019 3 4 0.00 0.03
1:01 am 01:01 Windy with Snow Likely 19 -7 12 -11 73 73 N 23 37 30.21 1023 4 6 0.00 0.00
1:42 am 01:42 Cloudy 18 -8 10 -12 73 73 N 25 41 30.24 1024 10 16 0.00 0.00
1:53 am 01:53 Cloudy 16 -8.9 9 -12.8 74 74 N 26 43 30.11 1020 10 16 0.00 0.03
2:53 am 02:53 Cloudy 13 -10.6 6 -14.4 74 74 N 26 43 30.14 1021 10 16 0.00 0.00
3:53 am 03:53 Windy with Snow Likely 11 -11.7 4 -15.6 73 73 N 25 41 30.20 1023 8 13 0.00 0.03
4:53 am 04:53 Windy with Snow Likely 9 -12.8 2 -16.7 73 73 N 24 39 30.20 1023 4 6 0.00 0.03
5:18 am 05:18 Windy with Snow Likely 9 -13 1 -17 72 72 N 24 39 30.36 1028 2 3 0.00 0.00
5:25 am 05:25 Windy with Snow Likely 8 -13.3 3 -16.1 80 80 N 24 39 30.36 1028 2 3 0.00 0.03
5:42 am 05:42 Mostly Cloudy with Light Snow 7 -13.9 2 -16.7 80 80 N 24 39 30.39 1029 1 1 0.00 0.03
5:53 am 05:53 Mostly Cloudy with Light Snow 6 -14.4 2 -16.7 83 83 N 26 43 30.26 1025 1 1 0.00 0.03
6:02 am 06:02 Mostly Cloudy with Snow 7 -14 1 -17 78 78 N 23 37 30.42 1030 1 1 0.00 0.00
6:53 am 06:53 Mostly Cloudy with Freezing Fog 5 -15 1 -17.2 83 83 N 22 35 30.34 1027 1 1 0.00 0.03
7:07 am 07:07 Mostly Cloudy with Mist and Fog 5 -15 1 -17.2 83 83 N 21 33 30.48 1032 1 2 0.00 0.03
7:15 am 07:15 Mostly Cloudy with Freezing Fog 5 -15 1 -17.2 83 83 N 20 31 30.48 1032 1 1 0.00 0.03
7:48 am 07:48 Mostly Cloudy with Light Snow 3 -16 0 -18 85 85 N 24 39 30.48 1032 1 1 0.00 0.00
7:53 am 07:53 Mostly Cloudy with Light Snow 4 -15.6 -1 -18.3 80 80 N 21 33 30.39 1029 1 1 0.00 0.03
8:07 am 08:07 Mostly Cloudy with Snow 4 -15.6 -1 -18.3 80 80 N 21 33 30.50 1033 1 1 0.01 0.25
8:41 am 08:41 Mostly Cloudy with Freezing Fog 4 -15.6 0 -17.8 83 83 N 16 26 30.53 1034 1 1 0.01 0.25
8:50 am 08:50 Cloudy with Mist and Fog 3 -16 0 -18 85 85 NNW 20 31 30.59 1036 2 2 0.00 0.00
8:53 am 08:53 Cloudy with Mist and Fog 4 -15.6 0 -17.8 83 83 N 24 39 30.46 1032 1 2 0.01 0.25
9:04 am 09:04 Cloudy with Haze 3 -16 -2 -19 78 78 NNW 23 37 30.59 1036 1 1 0.00 0.00
9:18 am 09:18 Cloudy with Haze 3 -16 -2 -19 78 78 N 18 30 30.59 1036 2 2 0.00 0.00
9:23 am 09:23 Cloudy with Haze 4 -15.6 -2 -18.9 76 76 N 17 28 30.59 1036 3 5 0.00 0.00
9:32 am 09:32 Cloudy 5 -15 -2 -19 72 72 N 20 31 30.56 1035 7 11 0.00 0.00
9:48 am 09:48 Cloudy 5 -15 -2 -19 72 72 N 20 31 30.59 1036 9 14 0.00 0.00
9:53 am 09:53 Cloudy with Haze 5 -15 -2 -18.9 72 72 NNW 20 31 30.48 1032 6 10 0.00 0.00
10:09 am 10:09 Cloudy with Haze 6 -14.4 0 -17.8 76 76 NNW 16 26 30.59 1036 3 4 0.00 0.00
10:17 am 10:17 Cloudy with Haze 5 -15 -1 -18.3 76 76 NNW 21 33 30.59 1036 1 2 0.00 0.00
10:29 am 10:29 Mostly Cloudy with Haze 5 -15 -3 -19.4 69 69 N 23 37 30.59 1036 3 5 0.00 0.00
10:53 am 10:53 Mostly Cloudy with Light Snow 5 -15 -3 -19.4 69 69 N 21 33 30.50 1033 8 13 0.00 0.03
11:00 am 11:00 Mostly Cloudy with Light Snow 7 -14 -2 -19 66 66 N 18 30 30.62 1037 8 13 0.00 0.00
11:53 am 11:53 Cloudy 7 -13.9 -2 -18.9 66 66 N 17 28 30.52 1034 10 16 0.00 0.03
12:53 pm 12:53 Sunny 8 -13.3 -3 -19.4 60 60 N 16 26 30.50 1033 10 16 0.00 0.00
1:53 pm 13:53 Sunny 9 -12.8 -2 -18.9 61 61 N 15 24 30.48 1032 10 16 0.00 0.00
2:53 pm 14:53 Sunny 10 -12.2 -2 -18.9 58 58 NW 10 17 30.47 1032 10 16 0.00 0.00
3:53 pm 15:53 Sunny 9 -12.8 -1 -18.3 64 64 WNW 8 13 30.47 1032 10 16 0.00 0.00
4:53 pm 16:53 Sunny 7 -13.9 -2 -18.9 66 66 W 8 13 30.46 1032 10 16 0.00 0.00
5:53 pm 17:53 Sunny 3 -16.1 -5 -20.6 69 69 WSW 5 7 30.47 1032 10 16 0.00 0.00
6:53 pm 18:53 Clear 2 -16.7 -6 -21.1 69 69 WSW 5 7 30.46 1032 10 16 0.00 0.00
7:53 pm 19:53 Clear 0 -17.8 -7 -21.7 72 72 SW 3 6 30.44 1031 10 16 0.00 0.00
8:53 pm 20:53 Clear -1 -18.3 -7 -21.7 75 75 SSW 3 6 30.43 1030 10 16 0.00 0.00
9:53 pm 21:53 Clear 0 -17.8 -6 -21.1 76 76 SSW 6 9 30.40 1029 10 16 0.00 0.00
10:53 pm 22:53 Clear -1 -18.3 -7 -21.7 75 75 SSW 8 13 30.37 1029 10 16 0.00 0.00
11:53 pm 23:53 Clear -2 -18.9 -8 -22.2 75 75 S 8 13 30.32 1027 10 16 0.00 0.00

Powered by AerisWeather